| time (UTC) | temp C | wind direction | speed KPH | gust KPH | rain 1hr cm | rain 24hr cm | rain mn cm | humidity % | barometer mb |
| 20260507080017 | 10 | 205 | 4.8 | 9.7 | 0.00 | 0.00 | 0.00 | 86 | 1021.2 |
| 20260507074517 | 10 | 194 | 4.8 | 11.3 | 0.00 | 0.00 | 0.00 | 86 | 1021.3 |
| 20260507073114 | 10 | 204 | 8.0 | 17.7 | 0.00 | 0.00 | 0.00 | 85 | 1021.2 |
| 20260507071512 | 10 | 182 | 9.7 | 14.5 | 0.00 | 0.00 | 0.00 | 85 | 1021.1 |
| 20260507070012 | 10 | 206 | 8.0 | 14.5 | 0.00 | 0.00 | 0.00 | 86 | 1021.1 |
| 20260507064509 | 10 | 211 | 8.0 | 17.7 | 0.00 | 0.00 | 0.00 | 87 | 1021.2 |
| 20260507063008 | 10 | 201 | 9.7 | 14.5 | 0.00 | 0.00 | 0.00 | 89 | 1021.1 |
| 20260507061506 | 10 | 232 | 8.0 | 16.1 | 0.00 | 0.00 | 0.00 | 89 | 1021.2 |
| 20260507060015 | 10 | 215 | 9.7 | 16.1 | 0.00 | 0.00 | 0.00 | 89 | 1021.2 |
| 20260507054503 | 10 | 223 | 9.7 | 16.1 | 0.00 | 0.00 | 0.00 | 89 | 1021.2 |
| 20260507051602 | 10 | 248 | 6.4 | 11.3 | 0.00 | 0.00 | 0.00 | 89 | 1021.3 |
| 20260507050059 | 11 | 234 | 8.0 | 14.5 | 0.00 | 0.00 | 0.00 | 87 | 1021.3 |
| 20260507044558 | 11 | 205 | 8.0 | 16.1 | 0.00 | 0.00 | 0.00 | 86 | 1021.2 |
| 20260507043056 | 11 | 244 | 9.7 | 22.5 | 0.00 | 0.00 | 0.00 | 84 | 1021.2 |
| 20260507041556 | 11 | 236 | 8.0 | 16.1 | 0.00 | 0.00 | 0.00 | 82 | 1021.1 |
| 20260507040055 | 11 | 244 | 11.3 | 20.9 | 0.00 | 0.00 | 0.00 | 81 | 1021.0 |
| 20260507034556 | 11 | 226 | 11.3 | 22.5 | 0.00 | 0.00 | 0.00 | 81 | 1021.0 |
| 20260507033053 | 11 | 232 | 8.0 | 16.1 | 0.00 | 0.00 | 0.00 | 81 | 1020.8 |
| 20260507031552 | 11 | 216 | 11.3 | 20.9 | 0.00 | 0.00 | 0.00 | 80 | 1020.7 |
| 20260507030052 | 12 | 234 | 12.9 | 19.3 | 0.00 | 0.00 | 0.00 | 79 | 1020.5 |
| 20260507024603 | 12 | 236 | 9.7 | 19.3 | 0.00 | 0.00 | 0.00 | 79 | 1020.5 |
| 20260507023051 | 12 | 202 | 11.3 | 19.3 | 0.00 | 0.00 | 0.00 | 78 | 1020.4 |
| 20260507021550 | 12 | 219 | 12.9 | 25.7 | 0.00 | 0.00 | 0.00 | 78 | 1020.4 |
| 20260507020106 | 12 | 217 | 11.3 | 24.1 | 0.00 | 0.00 | 0.00 | 77 | 1020.4 |
| 20260507014602 | 12 | 250 | 12.9 | 24.1 | 0.00 | 0.00 | 0.00 | 76 | 1020.3 |
| 20260507013051 | 12 | 223 | 11.3 | 17.7 | 0.00 | 0.00 | 0.00 | 76 | 1020.4 |
| 20260507011548 | 12 | 216 | 14.5 | 22.5 | 0.00 | 0.00 | 0.00 | 75 | 1020.4 |
| 20260507010047 | 12 | 216 | 12.9 | 24.1 | 0.00 | 0.00 | 0.00 | 75 | 1020.4 |
| 20260507004547 | 13 | 203 | 12.9 | 27.4 | 0.00 | 0.00 | 0.00 | 76 | 1020.5 |
| 20260507003046 | 13 | 240 | 11.3 | 22.5 | 0.00 | 0.00 | 0.00 | 76 | 1020.4 |
| 20260507001548 | 13 | 242 | 14.5 | 24.1 | 0.00 | 0.00 | 0.00 | 75 | 1020.5 |
| 20260507000046 | 13 | 195 | 8.0 | 20.9 | 0.00 | 0.00 | 0.00 | 75 | 1020.5 |
| 20260506234552 | 13 | 215 | 16.1 | 24.1 | 0.00 | 0.00 | 0.00 | 74 | 1020.5 |
| 20260506233045 | 13 | 234 | 14.5 | 24.1 | 0.00 | 0.00 | 0.00 | 74 | 1020.5 |
| 20260506231552 | 13 | 254 | 14.5 | 20.9 | 0.00 | 0.00 | 0.00 | 72 | 1020.5 |
| 20260506230054 | 13 | 230 | 14.5 | 30.6 | 0.00 | 0.00 | 0.00 | 72 | 1020.5 |
| 20260506224542 | 13 | 254 | 12.9 | 27.4 | 0.00 | 0.00 | 0.00 | 73 | 1020.6 |
| 20260506223051 | 13 | 239 | 16.1 | 27.4 | 0.00 | 0.00 | 0.00 | 72 | 1020.6 |
| 20260506221540 | 13 | 223 | 11.3 | 25.7 | 0.00 | 0.00 | 0.00 | 74 | 1020.8 |
| 20260506220039 | 12 | 238 | 17.7 | 27.4 | 0.00 | 0.00 | 0.00 | 74 | 1020.8 |
| 20260506214538 | 12 | 211 | 9.7 | 24.1 | 0.00 | 0.00 | 0.00 | 76 | 1020.9 |
| 20260506213052 | 13 | 236 | 12.9 | 27.4 | 0.00 | 0.00 | 0.00 | 74 | 1020.9 |
| 20260506211548 | 12 | 252 | 12.9 | 27.4 | 0.00 | 0.00 | 0.00 | 75 | 1020.9 |
| 20260506210036 | 12 | 227 | 14.5 | 20.9 | 0.00 | 0.00 | 0.00 | 74 | 1020.9 |
| 20260506204545 | 12 | 227 | 14.5 | 25.7 | 0.00 | 0.00 | 0.00 | 74 | 1020.8 |
| 20260506203033 | 12 | 256 | 12.9 | 24.1 | 0.00 | 0.00 | 0.00 | 75 | 1020.7 |
| 20260506201535 | 12 | 242 | 12.9 | 25.7 | 0.00 | 0.00 | 0.00 | 75 | 1020.6 |
| 20260506200029 | 12 | 248 | 12.9 | 22.5 | 0.00 | 0.00 | 0.00 | 76 | 1020.5 |
| 20260506194530 | 12 | 252 | 11.3 | 22.5 | 0.00 | 0.00 | 0.00 | 76 | 1020.5 |
| 20260506193025 | 12 | 257 | 12.9 | 19.3 | 0.00 | 0.00 | 0.00 | 77 | 1020.5 |
| 20260506191524 | 12 | 190 | 14.5 | 17.7 | 0.00 | 0.00 | 0.00 | 78 | 1020.3 |
| 20260506190022 | 12 | 232 | 14.5 | 19.3 | 0.00 | 0.00 | 0.00 | 80 | 1020.4 |
| 20260506184521 | 11 | 194 | 12.9 | 17.7 | 0.00 | 0.00 | 0.00 | 81 | 1020.4 |
| 20260506183028 | 11 | 274 | 11.3 | 17.7 | 0.00 | 0.00 | 0.00 | 82 | 1020.5 |
| 20260506181516 | 11 | 234 | 9.7 | 16.1 | 0.00 | 0.00 | 0.00 | 82 | 1020.3 |
| 20260506180014 | 11 | 201 | 9.7 | 17.7 | 0.00 | 0.00 | 0.00 | 85 | 1020.1 |
| 20260506174512 | 11 | 231 | 8.0 | 17.7 | 0.00 | 0.00 | 0.00 | 87 | 1020.3 |
| 20260506173011 | 11 | 234 | 12.9 | 17.7 | 0.00 | 0.00 | 0.00 | 88 | 1020.2 |
| 20260506171510 | 11 | 232 | 8.0 | 22.5 | 0.00 | 0.00 | 0.00 | 89 | 1020.3 |
| 20260506170008 | 11 | 218 | 9.7 | 19.3 | 0.00 | 0.00 | 0.00 | 90 | 1020.1 |
| 20260506164508 | 11 | 206 | 11.3 | 16.1 | 0.00 | 0.00 | 0.00 | 94 | 1020.2 |
| 20260506163008 | 10 | 219 | 9.7 | 14.5 | 0.00 | 0.00 | 0.00 | 97 | 1019.8 |
| 20260506161507 | 10 | 188 | 6.4 | 11.3 | 0.00 | 0.00 | 0.00 | 97 | 1019.7 |
| 20260506160005 | 10 | 221 | 4.8 | 11.3 | 0.00 | 0.00 | 0.00 | 97 | 1019.8 |
| 20260506154503 | 10 | 243 | 4.8 | 12.9 | 0.00 | 0.00 | 0.00 | 97 | 1019.9 |
| 20260506153001 | 10 | 220 | 4.8 | 12.9 | 0.00 | 0.00 | 0.00 | 97 | 1020.0 |
| 20260506151605 | 10 | 218 | 9.7 | 14.5 | 0.00 | 0.00 | 0.00 | 97 | 1019.6 |
| 20260506150100 | 10 | 186 | 6.4 | 14.5 | 0.00 | 0.00 | 0.00 | 96 | 1019.7 |
| 20260506144658 | 10 | 229 | 6.4 | 14.5 | 0.00 | 0.00 | 0.00 | 96 | 1019.8 |
| 20260506143102 | 10 | 252 | 4.8 | 12.9 | 0.00 | 0.00 | 0.00 | 96 | 1019.5 |
| 20260506141554 | 10 | 229 | 4.8 | 14.5 | 0.00 | 0.00 | 0.00 | 95 | 1019.4 |
| 20260506140053 | 10 | 179 | 6.4 | 11.3 | 0.00 | 0.00 | 0.00 | 95 | 1019.5 |
| 20260506134652 | 10 | 209 | 9.7 | 14.5 | 0.00 | 0.00 | 0.00 | 94 | 1019.1 |
| 20260506133051 | 10 | 234 | 8.0 | 16.1 | 0.00 | 0.00 | 0.00 | 93 | 1019.2 |
| 20260506131546 | 10 | 239 | 8.0 | 14.5 | 0.00 | 0.00 | 0.00 | 92 | 1019.1 |
| 20260506130045 | 10 | 240 | 9.7 | 12.9 | 0.00 | 0.00 | 0.00 | 92 | 1019.0 |
| 20260506124543 | 10 | 221 | 8.0 | 12.9 | 0.00 | 0.00 | 0.00 | 92 | 1018.8 |
| 20260506123041 | 10 | 230 | 6.4 | 14.5 | 0.00 | 0.00 | 0.00 | 92 | 1018.7 |
| 20260506121540 | 10 | 196 | 6.4 | 11.3 | 0.00 | 0.00 | 0.00 | 92 | 1018.7 |
| 20260506120043 | 10 | 211 | 6.4 | 11.3 | 0.00 | 0.00 | 0.00 | 92 | 1018.8 |
| 20260506114538 | 10 | 172 | 4.8 | 12.9 | 0.00 | 0.00 | 0.00 | 92 | 1018.4 |
| 20260506113037 | 10 | 190 | 8.0 | 12.9 | 0.00 | 0.00 | 0.00 | 91 | 1018.5 |
| 20260506111535 | 10 | 221 | 8.0 | 14.5 | 0.00 | 0.00 | 0.00 | 90 | 1018.5 |
| 20260506110033 | 10 | 215 | 9.7 | 14.5 | 0.00 | 0.00 | 0.00 | 90 | 1018.4 |
| 20260506104533 | 11 | 248 | 8.0 | 14.5 | 0.00 | 0.00 | 0.00 | 89 | 1018.3 |
| 20260506103037 | 11 | 227 | 6.4 | 12.9 | 0.00 | 0.00 | 0.00 | 89 | 1018.2 |
| 20260506101530 | 11 | 250 | 6.4 | 14.5 | 0.00 | 0.00 | 0.00 | 89 | 1018.1 |
| 20260506100029 | 11 | 211 | 4.8 | 11.3 | 0.00 | 0.00 | 0.00 | 88 | 1017.8 |
| 20260506094527 | 11 | 207 | 6.4 | 11.3 | 0.00 | 0.00 | 0.00 | 88 | 1017.7 |
| 20260506093026 | 11 | 234 | 6.4 | 11.3 | 0.00 | 0.00 | 0.00 | 88 | 1017.7 |
| 20260506091525 | 11 | 234 | 6.4 | 12.9 | 0.00 | 0.00 | 0.00 | 89 | 1017.7 |
| 20260506090040 | 10 | 210 | 9.7 | 16.1 | 0.00 | 0.00 | 0.00 | 89 | 1017.6 |
| 20260506084524 | 10 | 203 | 11.3 | 17.7 | 0.00 | 0.00 | 0.00 | 89 | 1017.5 |
| 20260506083020 | 11 | 202 | 12.9 | 19.3 | 0.00 | 0.00 | 0.00 | 88 | 1017.4 |
| 20260506081518 | 11 | 206 | 11.3 | 16.1 | 0.00 | 0.00 | 0.00 | 88 | 1017.4 |